Regional Weather Roundup
Issued by NWS Wakefield, VA

Home | Current Version | Previous Version | Graphics & Text | Print | Product List | Glossary On
Versions: 1 2 3 4 5 6 7 8 9 10 11 12 13 14 15 16 17 18 19 20 21 22 23 24 25 26 27 28 29 30 31 32 33 34 35 36 37 38 39 40 41 42 43 44 45 46 47 48
000
ASUS41 KAKQ 010510
RWRAKQ

REGIONAL WEATHER ROUNDUP
NATIONAL WEATHER SERVICE WAKEFIELD VA
100 AM EDT WED OCT 01 2014

Note: "fair" indicates few or no clouds below 12,000 feet with no
significant weather and/or obstructions to visibility. * = Denotes
station may not report precipitation (e.g., rain,snow,etc.),
thunder or fog.

VAZ042-051-052>054-056-010600-
NORTHERN VIRGINIA

CITY           SKY/WX    TMP DP  RH WIND       PRES   REMARKS
WASH NATIONAL  LGT RAIN  69  62  78 N6        29.95S
DULLES         CLOUDY    63  62  97 CALM      29.96R
FORT BELVOIR   CLOUDY    64  63  96 CALM      29.94F
QUANTICO       CLOUDY    66  63  90 NW6       29.95S
FREDERICKSBRG* MOCLDY    64  64 100 NE3       29.93S
STAFFORD*      MOCLDY    63  63 100 CALM      29.98S
WARRENTON      FOG       62  62 100 CALM      29.95R VSB 1/2
CULPEPER*      FOG       61  61 100 CALM      29.96S VSB 1/4
MANASSAS*      CLOUDY    63  63 100 CALM      29.95R
LEESBURG*      CLOUDY    63  63 100 CALM      29.97R
WINCHESTER     DRIZZLE   63  61  94 CALM      29.97R
FRONT ROYAL*   CLOUDY    61  61 100 NW5       29.96R
LURAY*         FOG       61  61 100 CALM      29.97R VSB 1/2
$$

VAZ048-049-060>072-079>083-010600-
CENTRAL AND SOUTH CENTRAL VIRGINIA...AND NORTH CENTRAL NORTH CAROLINA

CITY           SKY/WX    TMP DP  RH WIND       PRES   REMARKS
RICHMOND       MOCLDY    64  61  90 NE5       29.94S
CHESTERFIELD*  CLOUDY   N/A N/A N/A CALM      29.96R
PETERSBURG*    PTCLDY    55  54  97 CALM      29.95S FOG
HANOVER        CLOUDY    61  60  97 CALM      29.96S
TAPPAHANNOCK*  PTCLDY    58  56  94 CALM      29.95S FOG
CHARLOTTSVILLE CLOUDY    62  61  96 CALM      29.95S FOG
ORANGE*        CLOUDY    61  61 100 CALM      29.97R FOG
LOUISA*        PTCLDY    61  59  94 CALM      29.94R FOG
FARMVILLE*     CLOUDY    61  61 100 N3        29.94R FOG
CREWE*         CLOUDY    57  55  94 CALM      29.95S
FORT PICKETT*  MOCLDY    61  60  97 N6        29.95S
LUNENBURG*     CLOUDY    56  56  99 N5        29.95R VSB 1/2
SOUTH HILL*    FOG       61  61 100 CALM      29.98S VSB<1/4
LAWRENCEVILLE* CLOUDY    59  59 100 N3        29.93S VSB 1/2
ROANOKE RAPIDS FOG       55  55 100 CALM      29.93R VSB 1/4
RALEIGH        PTCLDY    60  58  92 CALM      29.94S
$$

VAZ088>098-010600-
SOUTHEAST VIRGINIA

CITY           SKY/WX    TMP DP  RH WIND       PRES   REMARKS
NORFOLK        PTCLDY    69  64  84 N7        29.91S
VIRGINIA BEACH PTCLDY    66  62  87 NW3       29.91R
NORFOLK NAVAL  PTCLDY    70  64  81 NE7       29.93S
WEST POINT*    CLEAR     60  58  92 CALM      29.95S
NEWPORT NEWS   CLEAR     64  60  87 N3        29.93S FOG
LANGLEY AFB    PTCLDY    62  62 100 N6        29.93S
FORT EUSTIS    CLEAR     63 N/A N/A CALM      29.91S
WILLIAMSBURG*  CLEAR     64  63  94 CALM      29.94S
HR EXEC AP*    CLEAR     55  52  88 CALM      29.94S
FRANKLIN*      CLEAR     57  57 100 CALM      29.92F
WAKEFIELD      CLOUDY    59  56  89 CALM      29.93S FOG
$$

VAZ020-022-025-037-045-010600-
WEST CENTRAL AND SOUTHWEST VIRGINIA

CITY           SKY/WX    TMP DP  RH WIND       PRES   REMARKS
STAUNTON*      CLOUDY    63  56  79 CALM      29.98F
HOT SPRINGS VA CLOUDY    57  37  46 SW3       30.05S
LYNCHBURG      CLOUDY    62  62 100 CALM      29.97R FOG
DANVILLE       FOG       64  62  93 CALM      29.94S VSB 1/4
SOUTH BOSTON*  NOT AVBL
MARTINSVILLE   CLEAR     58  58 100 CALM      29.97S FOG
ROANOKE        CLOUDY    61  57  87 W5        29.97S
BLACKSBURG     CLEAR     54  54 100 CALM      30.01S
DUBLIN*        CLEAR     57  55  92 CALM      30.00F
MARION*        CLEAR     53  52  95 CALM      30.04S FOG
HILLSVILLE*    CLEAR     56  54  91 S5        30.02S
RICHLANDS*     CLEAR     61  56  82 CALM      30.02F
WISE*          CLEAR     57  50  77 SW3       30.03S
ABINGDON*      CLEAR     56  55  94 CALM      30.00S
$$

MDZ021>025-VAZ099-100-010600-
SOUTHERN MARYLAND AND THE DELMARVA PENINSULA

CITY           SKY/WX    TMP DP  RH WIND       PRES   REMARKS
PATUXENT RIVER CLOUDY    67  63  87 E7        29.94S
BAY BRIDGE APT   N/A     64  61  88 NE5       29.95F
LEONARDTOWN    MOCLDY    61  59  94 CALM      29.95F
DOVER          CLOUDY    62  62 100 N7        29.94R
GEORGETOWN     PTCLDY    61  58  90 VRB6      29.95S
EASTON         MOCLDY    65  65 100 CALM      29.98F
CAMBRIDGE      CLOUDY    64  61  88 CALM      29.94S
SALISBURY      MOCLDY    65  61  87 CALM      29.93F
OCEAN CITY     PTCLDY    64  61  90 NW3       29.93S
WALLOPS ISLAND PTCLDY    64  62  93 N6        29.94R
ACCOMACK*      PTCLDY    59  55  88 N6        29.93S FOG
$$

NCZ012>017-030>032-010600-
EASTERN NORTH CAROLINA

CITY           SKY/WX    TMP DP  RH WIND       PRES   REMARKS
ELIZABETH CITY CLEAR     65  63  93 NW8       29.91R
AHOSKIE*         N/A     58  57  98 CALM      29.93R FOG
EDENTON*       CLEAR     61  60  97 CALM      29.91S
CURRITUCK*     CLEAR     64  62  94 CALM      29.92R
KILL DEVIL HLS CLEAR     69  64  85 N6        29.88S
MANTEO         CLEAR     67  64  89 N7        29.89S
CAPE HATTERAS  PTCLDY    67  66  97 VRB6      29.88R
TARBORO*       FOG       58  57  97 CALM      29.93S VSB 1/4
GOLDSBORO      CLEAR     63  63  98 CALM      29.90S
WASHINGTON     CLEAR     62  61  97 CALM      29.91S
GREENVILLE     FOG       61  61 100 CALM      29.94S VSB 1/2
NEW BERN       CLEAR     65  62  90 CALM      29.91S
WILMINGTON     CLEAR     66  64  93 N7        29.90S
$$

VAZ048-010600-
ELSEWHERE

CITY           SKY/WX    TMP DP  RH WIND       PRES   REMARKS
HARRISBURG PA  LGT RAIN  61  60  97 E5        29.96F
BALTIMORE      CLOUDY    64  63  94 E6        29.95R
ANNAPOLIS      CLOUDY    68  62  81 E8        29.94F
ANDREWS AFB    CLOUDY    65  64  98 NE6       29.94F
WILMINGTON DE  MOCLDY    65  60  84 NE7       29.98S
PHILADELPHIA   MOCLDY    64  58  80 NE8       29.98R
WILDWOOD NJ*   CLOUDY    61  55  82 N6        29.95S
ATLANTIC CITY  CLOUDY    62  61  96 N7        29.94F
HENDERSON NC   FOG       58  57  96 CALM      29.94S VSB 1/4
GREENSBORO     CLEAR     63  61  93 SW5       29.94S
ROCKY MOUNT    FOG       57  56  96 CALM      29.92S VSB 1/2
FAYETTEVILLE   CLEAR     64  63  96 N3        29.91S
CHARLOTTE      CLEAR     64  61  90 CALM      29.94S
$$

VAZ100-010600-
MARINE

STATION/POSITION TIME  TEMP    WIND        PRES    WAVE   SWELL
                       AIR SEA DIR/SP/G            HT/PER HT/PER
                 (UTC) (F)     (DEG/KT/KT) (MB)    (FT/S) (FT/S)
44066 TX TWR #4  0500   67 70   50/ 17/ 19 1012.6F   5/ 6   2/14
CAPE MAY NJ      0500   64 74   10/  3/  6 1013.3S
LEWES DE         0500   67 70   20/  9/ 10 1013.6S
15NM E FENWICK I 0500   68 70              1012.8S   3/ 4
OCEAN-CITY-INLET 0500   68 72   30/  6/  9 1013.0F
WACHAPREAGUE VA  0500   64 74  330/  3/  6 1013.4S
THOMAS POINT MD  0500   66 72   70/ 11/ 13 1015.0R
GOOSES REEF MD   0500   68     130/ 10/ 12 1014.2S
COVE POINT MD    0500   67     120/  7/  8 1013.7F
SOLOMONS ISLAND  0500      73                N/A
BISHOPS HEAD MD  0500   68 73   40/  7/  9 1013.4S
PINEY POINT MD   0500           80/  4/  4   N/A
POTOMAC MD       0500   70     100/  6/  8 1013.1R
CAMBRIDGE MD     0500   67 71   60/  6/  7 1013.7S
LEWISETTA VA     0500   68 72  120/  5/  6 1013.3S
RAPPAHANNOCK LGT 0500           30/  9/ 10 1014.0R
STINGRAY PT      0500   70      60/  6/  6   N/A
YORK RVR RNG VA  0500   70      40/  7/  8 1012.8S
YORKTOWN VA      0500   67 73  360/  5/  6 1013.1R
JAMESTOWN VA     0500   65     360/  2/  2   N/A
DOMINION TERM VA 0500   68      60/  1/  3 1013.1S
KIPTOPEKE VA     0500      76   30/  5/  7   N/A
CHES BAY BRIDGE  0500   70 72   10/ 10/ 10 1012.5S
CHESAPEAKE LGHT  0400   70      30/ 12/ 12 1013.3R
WILLOUBY STN VA  0500   70      20/  7/  8 1011.8S
S CRANEY ISL VA  0500          350/  6/  7 1012.7F
CAPE HENRY BUOY  0500      73                N/A     2/14
1ST LANDING BUOY 0500   71      20/ 10/ 12 1012.7S
CAPE CHARLES BUO 0500      73                N/A     2/14   2/14
OFFSHORE WE BUOY 0500      73                N/A     3/14   2/14
64NM E OF VA BCH 0500   71 72   10/ 14/ 16 1011.2S   3/14   2/14
DUCK PIER NC     0500   71 73   20/ 10/ 12 1011.4R
44100 DUCK FRF   0500      72                N/A     3/14   2/14
44056 DUCK FRF   0500                        N/A     2/14
OREGON INLET NC  0500   69 73   10/  8/ 12 1011.8S
HATTERAS NC      0500   71 75   10/ 14/ 15 1012.1R
DIAMOND SHLS NC  0500   72     350/ 16/ 19 1011.1R   4/ 6   2/14
CAPE LOOKOUT NC  0400   71      10/  9/ 12 1011.7R
$$



USA.gov is the U.S. government's official web portal to all federal, state and local government web resources and services.